USA 134

Last updated on Mon Oct 14 2024 00:02:37 GMT+0000 (Coordinated Universal Time)

1 25019U 97065A 24287.54824653 -.00000058 00000+0 00000+0 0 9996 2 25019 12.0506 26.0462 0003109 213.3863 228.4673 1.00271252 25472
UTC large
Height (km)
Speed (km/s)
/
Latitude / Longitude
Inclination (degrees)
Orbital Period (minutes)
Azimuth
Elevation
Range (km)
Doppler Factor

Next 0 passes for location: London (51.5072 / 0.1276)

Sorry there are no passes over London.